IK1QAD-3 Weather Reports


time (UTC)temp
C
wind
direction
speed
KPH
gust
KPH
rain 1hr
cm
rain 24hr
cm
rain mn
cm
humidity
%
barometer
mb
20260506024834 12 305 4.8 9.7 0.00 7.70 0.18 92 1008.2
20260506024330 12 319 3.2 9.7 0.00 7.70 0.18 93 1008.0
20260506023827 12 338 3.2 4.8 0.00 7.70 0.18 93 1007.9
20260506023342 12 320 3.2 6.4 0.00 7.70 0.18 93 1008.0
20260506022839 12 302 3.2 8.0 0.00 7.70 0.18 92 1008.2
20260506022338 12 298 4.8 8.0 0.00 7.70 0.18 92 1008.4
20260506021830 12 311 6.4 9.7 0.00 7.70 0.18 92 1008.5
20260506021329 12 308 4.8 9.7 0.00 7.70 0.18 92 1008.5
20260506020840 12 329 6.4 12.9 0.00 7.70 0.18 92 1008.5
20260506020337 12 332 4.8 12.9 0.00 7.70 0.18 93 1008.6
20260506015837 12 313 6.4 8.0 0.00 12.80 0.18 92 1008.7
20260506015330 12 304 4.8 6.4 0.00 12.80 0.18 92 1008.9
20260506014826 13 296 1.6 4.8 0.00 12.80 0.18 91 1009.0
20260506014339 13 297 3.2 6.4 0.00 12.80 0.18 91 1009.1
20260506013835 13 309 1.6 6.4 0.00 12.80 0.18 91 1009.2
20260506013330 13 273 1.6 8.0 0.00 12.80 0.18 90 1009.3
20260506012826 13 307 4.8 12.9 0.00 12.80 0.18 90 1009.2
20260506012343 13 325 6.4 14.5 0.00 12.80 0.18 91 1009.0
20260506011835 13 344 6.4 14.5 0.00 12.80 0.18 91 1009.2
20260506011335 13 337 6.4 9.7 0.10 12.80 0.18 91 1009.3
20260506010832 13 329 4.8 12.9 0.20 12.80 0.18 91 1009.3
20260506010326 13 322 6.4 12.9 0.30 12.80 0.18 92 1009.2
20260506005826 13 317 8.0 12.9 0.30 16.00 0.18 92 1009.3
20260506005341 13 331 4.8 9.7 0.30 16.00 0.18 92 1009.4
20260506004838 13 345 3.2 9.7 0.41 16.00 0.18 92 1009.5
20260506004338 13 323 6.4 9.7 0.61 16.00 0.18 93 1009.6
20260506003832 13 313 4.8 9.7 0.79 16.00 0.18 93 1009.6
20260506003333 13 323 4.8 12.9 0.89 16.00 0.18 93 1009.6
20260506002825 13 308 4.8 12.9 0.89 16.00 0.18 92 1009.6
20260506002343 13 305 4.8 9.7 0.89 16.00 0.18 92 1009.8
20260506001838 13 335 4.8 12.9 0.79 15.90 0.15 92 1010.0
20260506001334 13 9 3.2 14.5 0.79 15.90 0.15 92 1010.1
20260506000832 13 315 11.3 14.5 0.71 15.80 0.15 92 1010.4
20260506000330 13 267 6.4 11.3 0.61 15.70 0.13 92 1010.6
20260505235824 13 244 8.0 11.3 0.61 20.09 0.13 92 1010.6
20260505235340 13 247 6.4 14.5 0.61 20.09 0.13 92 1010.5
20260505234833 13 268 4.8 9.7 0.41 19.89 0.08 91 1010.5
20260505234332 13 246 1.6 8.0 0.30 19.81 0.05 91 1010.6
20260505233826 14 322 4.8 8.0 0.00 19.51 0.00 89 1010.5
20260505233324 14 316 4.8 8.0 0.00 19.51 0.00 88 1010.4
20260505232839 14 334 0.0 6.4 0.00 19.51 0.00 88 1010.4
20260505232335 14 333 1.6 8.0 0.00 19.51 0.00 88 1010.5
20260505231833 13 333 4.8 8.0 0.00 19.51 0.00 89 1010.5
20260505231326 13 310 6.4 8.0 0.00 19.51 0.00 90 1010.6
20260505230825 13 309 6.4 9.7 0.00 19.51 0.00 90 1010.7
20260505230345 13 313 4.8 8.0 0.00 19.51 0.00 90 1010.6
20260505225833 13 317 3.2 6.4 0.00 23.90 0.00 90 1010.5
20260505225329 13 317 4.8 6.4 0.00 23.90 0.00 91 1010.5
20260505224841 13 317 4.8 6.4 0.00 23.90 0.00 91 1010.7
20260505224339 13 316 4.8 8.0 0.00 23.90 0.00 91 1010.7
20260505223836 13 319 4.8 8.0 0.00 23.90 0.00 91 1010.8
20260505223329 13 360 1.6 6.4 0.00 23.90 0.00 91 1011.0
20260505222824 13 329 3.2 6.4 0.00 23.90 0.00 91 1011.1
20260505222340 13 5 1.6 4.8 0.00 23.90 0.00 91 1011.1
20260505221836 13 337 4.8 4.8 0.00 23.90 0.00 91 1011.2
20260505221334 13 329 3.2 8.0 0.00 23.90 0.00 91 1011.3
20260505220829 13 319 4.8 8.0 0.00 23.90 0.00 91 1011.4
20260505220328 13 320 6.4 8.0 0.00 23.90 0.00 91 1011.7
20260505215831 13 336 3.2 4.8 0.00 24.00 4.78 92 1011.8
20260505215329 13 342 3.2 4.8 0.00 24.00 4.78 92 1011.7
20260505214826 13 338 3.2 4.8 0.00 24.00 4.78 92 1011.8
20260505214341 13 340 1.6 6.4 0.00 24.00 4.78 92 1011.8
20260505213837 13 325 3.2 8.0 0.00 24.00 4.78 92 1011.9
20260505213334 13 313 6.4 9.7 0.00 24.00 4.78 92 1011.8
20260505212831 13 318 8.0 9.7 0.00 24.00 4.78 93 1011.9
20260505212333 13 321 4.8 6.4 0.00 24.00 4.78 92 1012.0
20260505211826 13 319 3.2 6.4 0.00 24.00 4.78 93 1012.0
20260505211344 13 13 3.2 6.4 0.00 24.00 4.78 93 1011.9
20260505210838 13 319 4.8 8.0 0.00 24.00 4.78 93 1012.0
20260505210334 13 326 6.4 8.0 0.00 24.00 4.78 93 1012.1
20260505205828 13 309 6.4 6.4 0.00 24.00 4.78 92 1012.2
20260505205344 13 313 3.2 6.4 0.00 24.00 4.78 92 1012.2
20260505204842 13 334 3.2 6.4 0.00 24.00 4.78 92 1012.2
20260505204334 13 329 3.2 6.4 0.00 24.00 4.78 93 1012.2
20260505203837 13 313 3.2 6.4 0.00 24.00 4.78 92 1012.2
20260505203338 13 307 4.8 6.4 0.00 24.00 4.78 92 1012.2
20260505202830 13 321 4.8 6.4 0.00 24.00 4.78 92 1012.2
20260505202330 13 325 3.2 6.4 0.00 24.00 4.78 92 1012.2
20260505201825 13 327 3.2 8.0 0.00 24.00 4.78 92 1012.1
20260505201344 13 336 3.2 6.4 0.00 24.00 4.78 92 1012.1
20260505200839 13 319 4.8 6.4 0.00 24.00 4.78 92 1012.1
20260505200330 12 316 4.8 6.4 0.00 24.00 4.78 92 1012.1
20260505195842 12 317 3.2 6.4 0.00 24.00 4.78 92 1012.1
20260505195336 12 301 4.8 9.7 0.00 24.00 4.78 91 1012.1
20260505194834 12 313 4.8 9.7 0.00 24.00 4.78 91 1012.0
20260505194333 13 304 6.4 9.7 0.00 24.00 4.78 90 1012.0
20260505193826 13 331 3.2 14.5 0.00 24.00 4.78 91 1011.9
20260505193325 13 50 4.8 12.9 0.00 24.00 4.78 91 1011.9
20260505192837 12 11 6.4 12.9 0.00 24.00 4.78 91 1011.9
20260505192332 13 338 4.8 9.7 0.00 24.00 4.78 91 1011.7
20260505191831 12 360 3.2 6.4 0.00 24.00 4.78 91 1011.8
20260505191327 12 350 4.8 8.0 0.00 24.00 4.78 91 1011.8
20260505190827 13 341 4.8 8.0 0.00 24.00 4.78 92 1011.7
20260505190342 12 340 4.8 8.0 0.00 24.00 4.78 92 1011.7
20260505185838 12 338 4.8 8.0 0.00 24.00 4.78 92 1011.6
20260505185335 13 338 4.8 8.0 0.00 24.00 4.78 91 1011.7
20260505184829 13 327 3.2 6.4 0.00 24.00 4.78 91 1011.7
20260505184343 13 315 4.8 8.0 0.00 24.00 4.78 92 1011.7
20260505183838 13 49 3.2 8.0 0.00 24.00 4.78 92 1011.6
20260505183336 13 338 3.2 9.7 0.00 24.00 4.78 91 1011.6
20260505182833 13 321 6.4 8.0 0.00 24.00 4.78 91 1011.6
20260505182326 13 327 4.8 8.0 0.00 24.00 4.78 91 1011.6
20260505181843 13 345 4.8 9.7 0.00 24.00 4.78 90 1011.6
20260505181337 14 319 8.0 9.7 0.00 24.00 4.78 90 1011.6
20260505180833 14 333 4.8 8.0 0.00 24.00 4.78 89 1011.7
20260505180333 15 325 4.8 6.4 0.00 24.00 4.78 89 1011.7
20260505175827 15 341 0.0 8.0 0.00 24.00 4.78 88 1011.7
20260505175325 15 323 3.2 8.0 0.00 24.00 4.78 87 1011.7
20260505174841 15 323 4.8 6.4 0.00 24.00 4.78 86 1011.8
20260505174340 15 317 3.2 4.8 0.00 24.00 4.78 85 1011.9
20260505173841 15 308 1.6 4.8 0.00 24.00 4.78 85 1011.9
20260505173338 15 332 3.2 8.0 0.00 24.00 4.78 85 1011.9
20260505172835 15 330 4.8 8.0 0.00 24.00 4.78 85 1011.9
20260505172331 16 307 4.8 8.0 0.00 24.00 4.78 83 1011.7
20260505171830 16 322 4.8 6.4 0.00 24.00 4.78 81 1011.6
20260505171326 16 312 1.6 4.8 0.00 24.00 4.78 79 1011.7
20260505170840 16 223 1.6 6.4 0.00 24.00 4.78 78 1011.7
20260505170338 16 225 4.8 6.4 0.00 24.00 4.78 76 1011.8
20260505165834 17 219 3.2 4.8 0.00 24.00 4.78 77 1011.8
20260505165330 17 188 1.6 4.8 0.00 24.00 4.78 77 1011.7
20260505164829 16 258 3.2 4.8 0.00 24.00 4.78 77 1011.8
20260505164341 16 250 3.2 4.8 0.00 24.00 4.78 77 1011.8
20260505163839 17 224 3.2 4.8 0.00 24.00 4.78 77 1011.8
20260505163334 17 193 1.6 3.2 0.00 24.00 4.78 77 1011.9
20260505162832 16 180 1.6 4.8 0.00 24.00 4.78 76 1012.0
20260505162329 16 171 1.6 6.4 0.00 24.00 4.78 75 1011.9
20260505161825 16 195 3.2 6.4 0.00 24.00 4.78 75 1011.9
20260505161341 17 207 3.2 6.4 0.00 24.00 4.78 75 1012.0
20260505160835 17 213 3.2 6.4 0.00 24.00 4.78 75 1011.9
20260505160334 17 207 3.2 4.8 0.00 24.00 4.78 75 1012.0
20260505153338 16 307 1.6 3.2 0.00 24.00 4.78 80 1011.9
20260505152829 16 307 0.0 0.0 0.00 24.00 4.78 82 1011.9
20260505152326 16 307 0.0 0.0 0.00 24.00 4.78 83 1011.9
20260505151839 16 307 0.0 3.2 0.00 24.00 4.78 84 1011.9
20260505151336 16 307 0.0 3.2 0.00 24.00 4.78 84 1012.0
20260505150836 16 22 1.6 4.8 0.00 24.00 4.78 84 1012.0
20260505150330 16 36 3.2 4.8 0.00 24.00 4.78 84 1012.0
20260505140342 16 178 0.0 0.0 0.00 24.00 4.78 85 1012.2
20260505124825 16 240 0.0 3.2 0.00 24.00 4.78 80 1012.2
20260505124340 16 240 3.2 4.8 0.00 24.00 4.78 80 1012.4
20260505123839 16 232 1.6 4.8 0.00 24.00 4.78 80 1012.3
20260505123333 16 214 0.0 4.8 0.00 24.00 4.78 79 1012.4
20260505122829 16 214 1.6 4.8 0.00 24.00 4.78 79 1012.3
20260505122331 16 205 1.6 4.8 0.00 24.00 4.78 81 1012.3
20260505121825 16 193 1.6 4.8 0.00 24.00 4.78 81 1012.3
20260505121326 16 163 3.2 4.8 0.00 24.00 4.78 81 1012.4
20260505120839 16 217 0.0 4.8 0.00 24.00 4.78 81 1012.3
20260505120338 16 217 3.2 4.8 0.00 24.00 4.78 81 1012.4
20260505115838 16 136 1.6 4.8 0.00 24.00 4.78 81 1012.3
20260505115335 16 221 1.6 6.4 0.00 24.00 4.78 82 1012.3
20260505114834 16 221 4.8 6.4 0.00 24.00 4.78 82 1012.3
20260505114329 16 197 3.2 6.4 0.00 24.00 4.78 82 1012.4
20260505113828 16 225 0.0 0.0 0.00 24.00 4.78 81 1012.4
20260505113325 16 111 0.0 0.0 0.00 24.00 4.78 81 1012.3
20260505112839 16 100 0.0 0.0 0.00 24.00 4.78 81 1012.3
20260505112339 16 94 0.0 3.2 0.00 24.00 4.78 81 1012.3
20260505111834 16 94 1.6 4.8 0.00 24.00 4.78 80 1012.3
20260505111331 16 108 3.2 6.4 0.00 24.00 4.78 79 1012.3
20260505110831 16 70 3.2 6.4 0.00 24.00 4.78 81 1012.3
20260505110330 16 148 0.0 6.4 0.00 24.00 4.78 83 1012.5
20260505101840 16 88 3.2 4.8 0.00 24.00 4.78 80 1012.3
20260505101332 16 128 0.0 4.8 0.00 24.00 4.78 81 1012.3
20260505100832 16 59 0.0 4.8 0.00 24.00 4.78 80 1012.3
20260505100331 16 86 1.6 4.8 0.00 24.00 4.78 81 1012.2
20260505095842 16 79 3.2 4.8 0.00 24.00 4.78 80 1012.3
20260505095343 16 141 3.2 4.8 0.00 24.00 4.78 81 1012.2
20260505094836 16 89 3.2 4.8 0.00 24.00 4.78 79 1012.2
20260505094333 16 135 0.0 0.0 0.00 24.00 4.78 79 1012.3
20260505093830 16 135 0.0 3.2 0.00 24.00 4.78 80 1012.2
20260505093327 16 135 0.0 3.2 0.00 24.00 4.78 80 1012.2
20260505092824 16 142 1.6 6.4 0.00 24.00 4.78 82 1012.2
20260505092338 16 209 1.6 6.4 0.00 24.00 4.78 80 1012.2
20260505091835 16 157 1.6 4.8 0.00 24.00 4.78 82 1012.2
20260505091334 16 140 3.2 4.8 0.00 24.00 4.78 81 1012.1
20260505090828 16 151 1.6 6.4 0.10 24.00 4.78 82 1012.0
20260505090330 16 106 3.2 9.7 0.20 24.00 4.78 81 1012.0
20260505085843 16 114 3.2 11.3 0.20 24.00 4.78 83 1012.1
20260505085341 16 156 3.2 12.9 0.20 24.00 4.78 84 1012.1
20260505084834 16 78 4.8 12.9 0.20 24.00 4.78 85 1012.0
20260505084328 16 121 6.4 12.9 0.20 24.00 4.78 87 1012.1
20260505083826 16 81 1.6 8.0 0.20 24.00 4.78 88 1011.9
20260505083341 15 50 3.2 8.0 0.20 24.00 4.78 89 1011.9
20260505082839 15 84 3.2 6.4 0.20 24.00 4.78 89 1012.0
20260505082336 15 234 1.6 9.7 0.20 24.00 4.78 89 1012.0
20260505081829 15 132 3.2 12.9 0.20 24.00 4.78 89 1011.9
20260505081325 15 138 1.6 8.0 0.10 23.90 4.75 90 1011.7
20260505080839 15 69 3.2 6.4 0.10 23.90 4.75 89 1011.6
20260505080339 15 56 1.6 4.8 0.00 23.80 4.75 88 1011.8
20260505075838 15 265 3.2 4.8 0.00 23.80 4.75 89 1012.0
20260505075333 15 355 0.0 0.0 0.00 23.80 4.75 89 1011.7
20260505074832 15 355 0.0 0.0 0.00 23.80 4.75 86 1011.4
20260505074327 15 355 0.0 0.0 0.00 23.80 4.75 87 1011.4
20260505073824 15 355 0.0 0.0 0.00 23.80 4.75 89 1011.4
20260505073343 15 355 0.0 0.0 0.00 23.80 4.75 90 1011.3
20260505072836 15 355 0.0 0.0 0.00 23.80 4.75 89 1011.3
20260505072335 15 355 0.0 1.6 0.00 23.80 4.75 91 1011.2
20260505071828 15 355 0.0 3.2 0.00 23.80 4.75 93 1011.2
20260505071327 14 355 0.0 4.8 0.00 23.80 4.75 93 1011.2
20260505070825 14 23 1.6 4.8 0.00 23.80 4.75 94 1011.3
20260505070340 14 11 1.6 3.2 0.00 23.80 4.75 94 1011.2
20260505065837 14 340 1.6 4.8 0.00 23.80 4.75 95 1011.4
20260505065329 13 319 1.6 6.4 0.00 23.80 4.75 95 1011.3
20260505064830 13 322 3.2 4.8 0.00 23.80 4.75 95 1011.2
20260505064330 13 341 0.0 4.8 0.00 23.80 4.75 96 1011.1
20260505063824 13 20 1.6 4.8 0.00 23.80 4.75 96 1011.1
20260505063343 13 347 1.6 4.8 0.00 23.80 4.75 96 1011.2
20260505062834 13 326 3.2 4.8 0.00 23.80 4.75 96 1011.2
20260505062331 13 326 3.2 4.8 0.00 23.80 4.75 96 1011.0
20260505061832 13 341 1.6 4.8 0.00 23.80 4.75 96 1011.0
20260505061329 13 18 0.0 3.2 0.00 23.80 4.75 96 1011.0
20260505060827 13 38 0.0 6.4 0.00 23.80 4.75 97 1011.0
20260505060340 13 11 1.6 6.4 0.00 23.80 4.75 96 1010.8
20260505055835 13 333 3.2 4.8 0.00 23.80 4.75 96 1010.8
20260505055329 13 335 1.6 4.8 0.00 23.80 4.75 97 1010.9
20260505054824 12 323 1.6 3.2 0.00 23.80 4.75 96 1010.9
20260505054340 12 323 0.0 1.6 0.00 23.80 4.75 96 1010.7
20260505053833 12 323 0.0 4.8 0.00 23.80 4.75 96 1010.5
20260505053330 12 323 1.6 4.8 0.00 23.80 4.75 96 1010.5
20260505052828 12 325 1.6 4.8 0.00 23.80 4.75 96 1010.3
20260505052341 12 350 1.6 6.4 0.00 23.80 4.75 96 1010.2
20260505051840 12 324 3.2 6.4 0.00 23.80 4.75 96 1010.3
20260505051335 12 304 1.6 4.8 0.10 23.80 4.75 96 1010.3
20260505050837 12 315 3.2 4.8 0.10 23.80 4.75 96 1010.3
20260505050335 12 341 1.6 4.8 0.10 23.80 4.75 96 1010.2
20260505041325 12 274 9.7 14.5 2.49 23.70 4.72 96 1010.4
20260505040837 12 259 4.8 6.4 2.69 23.70 4.72 96 1010.4
20260505040333 12 161 1.6 4.8 3.10 23.70 4.72 96 1010.5
20260505035826 12 23 1.6 8.0 3.51 23.70 4.72 96 1010.5
20260505035342 12 53 4.8 8.0 3.61 23.50 4.67 96 1010.8
20260505034839 12 105 4.8 9.7 3.51 23.19 4.62 95 1011.4
20260505034329 12 224 6.4 9.7 3.81 23.01 4.57 95 1011.7
20260505033827 12 262 3.2 6.4 3.81 22.71 4.52 95 1011.7
20260505033341 12 290 4.8 6.4 3.61 22.40 4.47 95 1011.7
20260505032840 12 36 3.2 6.4 3.40 22.00 4.37 95 1011.7
20260505032340 12 10 3.2 6.4 3.40 21.69 4.32 95 1011.9
20260505031833 12 65 1.6 4.8 3.51 21.49 4.29 94 1012.3
20260505031331 12 178 1.6 4.8 3.40 21.21 4.22 94 1012.3
20260505030843 12 279 1.6 4.8 3.30 20.90 4.17 94 1012.3
20260505030326 12 231 1.6 11.3 3.30 20.60 4.09 95 1012.3
20260505025842 12 244 6.4 16.1 3.20 20.19 4.01 94 1012.1
20260505025332 12 240 12.9 16.1 3.10 19.81 3.94 94 1011.9